Location: Apeadero de Los Molinos-Guadarrama
(40.7091°N, 4.0689°W)
Time: 12:30:30
(UTC+00:00)

Cosmos 2228 Rocket - Pass Details

Date: 14 May 2021
Orbit: 618 x 651 km, 82.5° (Epoch: 18 June)

Event Time Altitude Azimuth Distance (km) Brightness Sun altitude
Exits shadow 21:13:16 34° 125° (SE) 1,038 3.7 -17.3°
Maximum altitude 21:14:18 39° 92° (E) 938 3.6 -17.5°
Drops below altitude 10° 21:18:29 10° 23° (NNE) 2,023 6.0 -18.0°
Sets 21:20:50 0° 16° (NNE) 2,941 7.0 -18.3°
